SB KEPS @ AMSAT $ORB26062.1 2Line Orbital Elements 26062.AMSAT QST de W1STR AMSAT Orbital Elements for Amateur Satellites in TLE Format From Orbital Analysis Office New England Sci-Tech STEM Education Center Natick MA March 03, 2026 To all radio amateurs These element sets describe the orbits of various satellites in use by the amateur radio community. For details see: www.amsat.org/keplerian-elements-formats/ A daily update of element sets is available at: www.amsat.org/tle/daily-bulletin.txt or without bulletin text: www.amsat.org/tle/dailytle.txt AO-07 1 07530U 74089B 26062.00455111 -.00000036 00000-0 66652-4 0 9995 2 07530 101.9969 74.1224 0012029 335.0951 53.2554 12.53696259347211 UO-11 1 14781U 84021B 26061.89315885 .00001825 00000-0 19262-3 0 9997 2 14781 97.7936 28.7530 0007798 164.0607 196.0858 14.90475584241296 AO-27 1 22825U 93061C 26062.13405130 .00000137 00000-0 69033-4 0 9997 2 22825 98.6996 129.5389 0009235 56.6560 303.5506 14.30910431691837 FO-29 1 24278U 96046B 26062.14070022 -.00000016 00000-0 19826-4 0 9998 2 24278 98.5392 285.4459 0350107 11.7524 349.1529 13.53268408458824 GO-32 1 25397U 98043D 26061.99663989 .00000101 00000-0 63660-4 0 9991 2 25397 99.0019 52.1056 0001861 130.2655 229.8686 14.24403864436216 ISS 1 25544U 98067A 26061.93054995 .00009325 00000-0 18075-3 0 9992 2 25544 51.6319 105.7724 0008215 150.8374 209.3074 15.48408287555284 NO-44 1 26931U 01043C 26061.64344242 .00000210 00000-0 10924-3 0 9995 2 26931 67.0510 159.8353 0007022 265.3529 94.6771 14.31907768275193 SO-50 1 27607U 02058C 26062.14270155 .00001952 00000-0 24771-3 0 9999 2 27607 64.5510 97.0209 0075095 281.8469 77.4222 14.82750791248738 CO-55 1 27844U 03031E 26061.96016478 .00000415 00000-0 19885-3 0 9992 2 27844 98.6778 71.8426 0010458 130.0831 230.1266 14.24259384176550 CO-57 1 27848U 03031J 26061.96597561 .00000349 00000-0 17234-3 0 9995 2 27848 98.6808 71.6462 0010091 146.6500 213.5316 14.23555571176260 RS-22 1 27939U 03042A 26062.21098179 .00001369 00000-0 22028-3 0 9998 2 27939 98.3426 243.5919 0010265 242.6287 233.2213 14.73229872199945 CO-58 1 28895U 05043F 26061.85173583 .00002468 00000-0 39841-3 0 9997 2 28895 98.2814 215.3472 0014356 178.8167 181.3076 14.72281718 86109 CO-65 1 32785U 08021C 26062.14583151 .00008575 00000-0 55688-3 0 9990 2 32785 97.8194 41.5004 0010305 38.7963 321.4002 15.08255715969201 CO-66 1 32791U 08021J 26061.91817894 .00024160 00000-0 86611-3 0 9993 2 32791 97.7504 55.0685 0002722 18.9486 341.1853 15.28722011971038 RS-30 1 32953U 08025A 26062.18909344 -.00000021 00000-0 -22238-3 0 9996 2 32953 82.4985 61.3684 0019286 179.4109 180.6996 12.43175650806529 SRMSAT 1 37841U 11058D 26062.20286726 .00000470 00000-0 11156-3 0 9995 2 37841 19.9732 340.9649 0011887 118.1185 34.7703 14.11544671742822 ZACUBE-1 1 39417U 13066B 26061.86043747 .00006102 00000-0 48380-3 0 9999 2 39417 97.8182 23.6506 0041555 243.0931 116.6044 15.00236927664783 Delfi-N3xt 1 39428U 13066N 26061.78004797 .00008685 00000-0 78413-3 0 9992 2 39428 97.8352 342.3120 0075851 199.3971 160.4358 14.93537092658731 GOMX-1 1 39430U 13066Q 26062.15002721 .00001868 00000-0 28681-3 0 9990 2 39430 97.6572 269.2627 0130631 58.3274 303.0595 14.69065861654347 LO-74 1 39440U 13066AA 26061.86115484 .00007706 00000-0 72433-3 0 9990 2 39440 97.8806 10.5236 0059455 21.5397 338.8304 14.92848010661124 AO-73 1 39444U 13066AE 26062.13757133 .00010295 00000-0 66728-3 0 9995 2 39444 97.8166 31.5650 0036601 201.9593 158.0068 15.07754747663671 DTUSAT-2 1 40030U 14033W 26061.91562149 .00011037 00000-0 62194-3 0 9997 2 40030 98.0834 53.0413 0006483 229.7707 130.2956 15.13377130636600 EO-80 1 40032U 14033Y 26062.18464698 .00011208 00000-0 62896-3 0 9998 2 40032 98.0718 52.6122 0007803 162.6279 197.5219 15.13514939636621 LILACSAT-2 1 40908U 15049K 26062.17946558 .00019701 00000-0 38164-3 0 9994 2 40908 97.4816 95.1786 0005582 278.2575 81.8042 15.47735618579337 Horyu-4 1 41340U 16012D 26062.20558706 .00088491 00000-0 98069-3 0 9996 2 41340 30.9912 113.3204 0001972 80.6893 279.3983 15.61570838554093 Lapan A3 1 41603U 16040E 26062.23362619 .00004781 00000-0 15539-3 0 9999 2 41603 97.1472 61.9299 0011769 43.8770 316.3405 15.32308183538580 CAS-2T 1 41847U 16066G 26062.19565041 .00001721 00000-0 24840-3 0 9992 2 41847 98.3899 139.1171 0343793 91.1199 272.9394 14.44445019489490 TechnoSat 1 42829U 17042E 26061.97574667 .00004977 00000-0 36086-3 0 9998 2 42829 97.4141 223.8060 0019585 96.7816 263.5640 15.04213177470737 AO-91 1 43017U 17073E 26062.17073479 .00012485 00000-0 56648-3 0 9999 2 43017 97.4875 291.6050 0155498 334.7355 24.6325 15.10700318449377 S-Net D 1 43186U 18014G 26061.67598887 .00007742 00000-0 41163-3 0 9997 2 43186 97.5450 327.1718 0009548 36.8925 323.2962 15.15513803442629 S-Net B 1 43187U 18014H 26062.14760818 .00007808 00000-0 41531-3 0 9998 2 43187 97.5456 327.6233 0010018 30.7648 329.4170 15.15493090442693 S-Net A 1 43188U 18014J 26062.13754568 .00007529 00000-0 40022-3 0 9997 2 43188 97.5465 327.8029 0009955 31.9926 328.1909 15.15527971442691 S-Net C 1 43189U 18014K 26062.15092223 .00007830 00000-0 41646-3 0 9991 2 43189 97.5479 327.8744 0011125 23.5048 336.6690 15.15485321441248 Ten-Koh 1 43677U 18084G 26062.11515169 .00003542 00000-0 27202-3 0 9993 2 43677 98.0788 250.0266 0011447 112.0096 248.2345 15.02410796400238 PO-101 1 43678U 18084H 26062.18461800 .00002633 00000-0 21719-3 0 9990 2 43678 98.1033 253.9545 0011080 146.9820 213.2096 14.99917926400326 QO-100 1 43700U 18090A 26062.13447653 .00000128 00000-0 00000+0 0 9991 2 43700 0.0228 237.9498 0002568 135.7171 221.4238 1.00270941 26617 MinXSS-2 1 43758U 18099A 26062.15405068 .00037099 00000-0 93399-3 0 9993 2 43758 97.4647 135.8534 0007442 285.6526 74.3898 15.39798641397771 AO-95 1 43770U 18099N 26062.14430379 .00013475 00000-0 55490-3 0 9991 2 43770 97.4530 122.9032 0008885 10.7969 349.3457 15.24199958397053 SNUSat 2 1 43782U 18099AA 26062.14988940 .00010587 00000-0 49365-3 0 9991 2 43782 97.4213 117.2214 0009282 311.8046 48.2395 15.20014908396913 SnugLite 1 43784U 18099AC 26062.11023359 .00015024 00000-0 61119-3 0 9996 2 43784 97.4023 117.5486 0001624 325.6813 34.4319 15.24616848397149 ITASat 1 1 43786U 18099AE 26062.11512135 .00008549 00000-0 42828-3 0 9993 2 43786 97.4182 115.7771 0012904 9.8071 350.3412 15.17544013396817 EAGLET 1 1 43790U 18099AJ 26062.13529793 .00005319 00000-0 31282-3 0 9992 2 43790 97.4387 114.6009 0011065 0.9962 359.1288 15.12028512396307 ESEO 1 43792U 18099AL 26062.06824409 .00002846 00000-0 21064-3 0 9997 2 43792 97.4106 103.9472 0011699 340.7188 19.3594 15.03872407395855 JO-97 1 43803U 18099AX 26062.14683024 .00019786 00000-0 68272-3 0 9998 2 43803 97.4270 124.8242 0004615 287.7620 72.3116 15.30000981397398 Suomi 100 1 43804U 18099AY 26062.12493820 .00015490 00000-0 60798-3 0 9993 2 43804 97.4335 123.0404 0009040 296.7797 63.2515 15.25777745397232 ISAT 1 43879U 18111D 26061.75420740 .00061850 00000-0 10943-2 0 9996 2 43879 97.5910 350.1309 0004537 6.2662 353.8645 15.50095696394608 UWE-4 1 43880U 18111E 26061.72119306 .00036009 00000-0 91783-3 0 9998 2 43880 97.5860 345.7590 0008919 5.6381 354.4963 15.39415358394366 Sparrow 1 43881U 18111F 26061.78717417 .00075103 00000-0 11691-2 0 9999 2 43881 97.6123 354.4897 0005721 47.7770 312.3967 15.53626643394751 Prox-1 1 44339U 19036A 26062.12826167 .00017914 00000-0 18819-2 0 9992 2 44339 23.9956 101.2598 0006146 242.1026 117.8850 14.87813520357643 Taurus 1 1 44530U 19059C 26062.16301281 .00006749 00000-0 11162-2 0 9997 2 44530 98.6291 220.5773 0008292 279.0543 80.9723 14.70665814343056 TO-108 1 44881U 19093C 26062.15554115 .00001307 00000-0 15421-3 0 9997 2 44881 97.7629 136.9482 0015000 77.4142 282.8751 14.86322721335663 FloripaSat 1 1 44885U 19093G 26062.19108412 .00008965 00000-0 67652-3 0 9990 2 44885 97.7927 155.7664 0012876 72.1178 288.1450 15.02596529336729 RS-44 1 44909U 19096E 26062.07117697 .00000008 00000-0 -15145-4 0 9994 2 44909 82.5189 50.2135 0218188 32.7590 328.6825 12.79747381288776 SALSAT 1 46495U 20068K 26061.92839164 .00011638 00000-0 42811-3 0 9999 2 46495 97.8846 58.6665 0008827 325.0587 35.0071 15.28017587299126 CSS (TIANHE-1) 1 48274U 21035A 26061.80363536 .00017409 00000-0 21017-3 0 9990 2 48274 41.4651 250.0496 0006617 230.1207 129.9050 15.60315912276531 CUTE 1 49263U 21088D 26062.03546388 .00045587 00000-0 44677-3 0 9996 2 49263 97.4239 153.8698 0003208 340.9869 19.1271 15.65971218245830 TeikyoSat 4 1 49396U 21102B 26062.04468023 .00002966 00000-0 19084-3 0 9998 2 49396 97.3801 95.6139 0010759 302.4648 57.5540 15.09077993236718 Z-Sat 1 49399U 21102E 26062.19006743 .00005835 00000-0 29487-3 0 9990 2 49399 97.3468 100.7201 0015334 255.9930 103.9599 15.17342961237369 KOSEN 1 1 49402U 21102H 26062.11447825 .00009660 00000-0 38686-3 0 9998 2 49402 97.3342 106.3700 0013223 216.7406 143.2927 15.25174788237843 HO-113 1 50466U 21131B 26062.18638367 .00000579 00000-0 19284-3 0 9995 2 50466 98.4970 155.1791 0005098 65.8927 294.2795 14.41240290219847 SNUGLITE 2 1 52899U 22065F 26061.97423831 .00001475 00000-0 28982-3 0 9999 2 52899 98.2017 207.1061 0007366 6.6369 353.4929 14.64106753195457 UmKA 1 (RS40S) 1 57172U 23091G 26062.11869756 .00008480 00000-0 40179-3 0 9990 2 57172 97.5193 121.2518 0014460 126.7076 233.5489 15.19475886147899 CubeBel-2 (EU11S) 1 57175U 23091K 26062.15173372 .00014705 00000-0 56491-3 0 9990 2 57175 97.5189 124.5619 0011763 126.6834 233.5487 15.26478590148116 RS-38S 1 57189U 23091Z 26062.16895549 .00020725 00000-0 66204-3 0 9995 2 57189 97.5212 129.7518 0009059 92.4861 267.7418 15.32455130148438 SONATE-2 1 59112U 24043Q 26061.94980006 .00042255 00000-0 73310-3 0 9997 2 59112 97.5387 206.5586 0007816 230.0363 130.0203 15.50720187111389 MO-122 1 60209U 24125G 26062.12898649 .00047865 00000-0 76679-3 0 9992 2 60209 97.2463 277.9072 0011156 249.9634 110.0419 15.52892931 93053 GRBBeta 1 60237U 24128C 26061.93357576 .00007151 00000-0 49181-3 0 9995 2 60237 61.9887 228.8093 0052095 112.8861 247.7743 15.05686920 90262 Curium One 1 60242U 24128H 26062.00201786 .00013499 00000-0 79791-3 0 9993 2 60242 61.9778 221.3651 0051979 109.4989 251.1731 15.10646202 90405 ROBUSTA-3A 1 60243U 24128J 26061.90999641 .00011245 00000-0 68092-3 0 9995 2 60243 61.9851 223.5980 0052439 107.1628 253.5217 15.09890417 90361 CatSat 1 60246U 24125J 26062.03120929 .00048522 00000-0 91385-3 0 9994 2 60246 97.2218 273.9316 0027660 213.0360 146.9164 15.47947629 90910 HYPERVIEW-1G (RS66S) 1 61772U 24199AP 26062.13891860 .00073525 00000-0 10140-2 0 9990 2 61772 97.3102 298.0452 0007214 315.7926 44.2752 15.56935943118086 AO-123 1 61781U 24199AY 26062.15804963 .00010974 00000-0 33600-3 0 9996 2 61781 97.3168 291.8050 0013447 335.6356 24.4250 15.33901798117668 JINJUSat 1B 1 63210U 25052A 26061.66581056 .00020517 00000-0 71056-3 0 9995 2 63210 97.4139 318.4799 0005481 96.8385 263.3479 15.29867501 53797 NUSHSAT 1 1 63211U 25052B 26062.17951762 .00025041 00000-0 82265-3 0 9999 2 63211 97.4117 319.2566 0005420 98.8716 261.3139 15.31538710 53890 TEVEL2-4 1 63213U 25052D 26061.69961236 .00022254 00000-0 75407-3 0 9997 2 63213 97.4040 318.1473 0004459 108.3721 251.8005 15.30565789 53808 TEVEL2-5 1 63214U 25052E 26062.16770052 .00022095 00000-0 75087-3 0 9992 2 63214 97.4034 318.5881 0004480 107.9794 252.1935 15.30472372 53876 TEVEL2-6 1 63215U 25052F 26062.17735064 .00022399 00000-0 76213-3 0 9997 2 63215 97.4039 318.5831 0004565 109.1661 251.0075 15.30430207 53872 TEVEL2-1 1 63217U 25052H 26062.17382953 .00021842 00000-0 75273-3 0 9991 2 63217 97.4013 318.3187 0004409 117.8452 242.3236 15.30019936 53862 TEVEL2-3 1 63218U 25052J 26062.17155620 .00021373 00000-0 73592-3 0 9992 2 63218 97.4017 318.3270 0004368 119.1899 240.9779 15.30053897 53864 TEVEL2-2 1 63219U 25052K 26061.45508269 .00022969 00000-0 79209-3 0 9997 2 63219 97.4017 317.6037 0004236 120.2136 239.9524 15.29988876 53755 TEVEL2-9 1 63237U 25052AD 26061.69733037 .00019983 00000-0 72566-3 0 9997 2 63237 97.4078 317.4266 0007313 144.2958 215.8772 15.28311423 53745 TEVEL2-7 1 63238U 25052AE 26061.26227880 .00020443 00000-0 74741-3 0 9995 2 63238 97.4081 316.9483 0007453 146.3242 213.8472 15.28082137 53673 TEVEL2-8 1 63239U 25052AF 26061.92403361 .00020228 00000-0 73951-3 0 9992 2 63239 97.4075 317.5873 0007397 144.4417 215.7316 15.28085966 53779 HYDRA-W 1 63490U 25052BL 26061.65559518 .00184252 00000-0 22336-2 0 9995 2 63490 97.3959 322.5096 0008638 118.8841 241.3284 15.59980742 54091 HADES-ICM (SO-125) 1 63492U 25052BN 26061.94421618 .00140395 00000-0 20827-2 0 9991 2 63492 97.3974 322.1564 0008280 123.9420 236.2622 15.54696929 54094 RSP-03 1 65732U 98067XL 26047.27951905 .10199253 12460-4 79249-3 0 9991 2 65732 51.6061 154.7117 0006246 319.9198 40.1367 16.39378610 23558 BOTAN 1 65942U 98067XP 26062.18133612 .04280876 12003-4 14562-2 0 9992 2 65942 51.6045 83.2412 0003369 47.8026 312.3279 16.24781476 22576 CEVROSAT1 1 66309U 25248S 26061.98715729 .00005218 00000-0 25671-3 0 9998 2 66309 45.4055 330.6604 0002970 187.7071 172.3770 15.19166843 18358 SPIRONE 1 66657U 25274H 26061.78118145 .00003107 00000-0 30375-3 0 9992 2 66657 97.7440 352.6646 0012769 15.6438 344.5173 14.93016372 14342 K-HERO 1 66660U 25274L 26061.74976195 .00003872 00000-0 37271-3 0 9990 2 66660 97.7447 352.7136 0014704 19.6541 340.5242 14.93475967 14340 SNUGLITE-III DURI 1 66661U 25274M 26061.87601495 .00003273 00000-0 31511-3 0 9999 2 66661 97.7442 352.8522 0015284 19.7109 340.4698 14.93567565 14363 SilverSat 1 66909U 98067XV 26062.09330892 .00175992 00000-0 14375-2 0 9995 2 66909 51.6248 98.6005 0005412 37.0222 323.1148 15.69479082 14158 SAKHACUBE-CHOLBON 1 67290U 25313AU 26062.17755243 .00012190 00000-0 52480-3 0 9993 2 67290 97.4023 138.6644 0009677 17.4060 342.7507 15.22709333 9833 QMR-KWT 1 67291U 25313AV 26062.16791543 .00018064 00000-0 76404-3 0 9994 2 67291 97.4021 138.6769 0009263 16.2097 343.9434 15.23224913 9837 IO-86 1 40931U 25360.30710720 .00000000 00000-0 12800-3 0 00 2 40931 6.0006 332.5373 0012733 338.8432 8.1437 14.79075515 01 /EX